[[{"header":{"parameterUnit":"m.s-1","parameterCategory":1,"la1":30.2991,"la2":30.254,"lo1":-89.0895,"lo2":-89.0444,"dy":0.0017,"dx":0.0017,"nx":28,"ny":28,"refTime":"2024-06-01T21:00:00:Z","depth":0,"parameterNumber":2,"parameterNumberName":"U-component_of_WINDS"},"data":[0,0,0,0,0,0,0,0,0,0,0,0,0,0,0,0,0,0,0,0,0,0,0,0,0,0,0,0,0,0,0,0,0,0,0,0,0,0,0,0,0,0,0,0,0,0,0,0,0,0,0,0,0,0,0,0,0,0,-0.7909,-0.7909,0,-0.7939,-0.7939,-0.7939,-0.7937,-0.7937,-0.7936,-0.7936,-0.7967,-0.7968,-0.7969,0,0,0,0,0,0,0,0,0,0,0,0,0,-0.7852,-0.7853,-0.7909,-0.7909,-0.791,-0.7939,-0.7939,-0.7939,-0.7937,-0.7936,-0.7936,-0.7935,-0.7966,-0.7968,-0.7969,0,0,0,0,0,0,0,0,0,0,0,0,0,-0.7879,-0.7853,-0.7909,-0.7912,-0.7913,-0.7939,-0.7939,-0.794,-0.7937,-0.7936,-0.7936,-0.7935,-0.7966,-0.7968,-0.7969,-0.7994,0,0,-0.7975,-0.7976,0,0,0,0,0,0,0,0,-0.7877,-0.7881,-0.7911,-0.7912,-0.7913,-0.7933,-0.793,-0.7958,-0.7937,-0.7928,-0.7936,-0.7935,-0.7956,-0.7959,-0.7966,-0.7996,-0.7997,-0.7975,-0.7976,-0.7977,-0.7978,0,0,0,0,0,0,0,-0.7875,-0.788,-0.7921,-0.7912,-0.7913,-0.7912,-0.7916,-0.7936,-0.7945,-0.7929,-0.7929,-0.7932,-0.7956,-0.7964,-0.7967,-0.7998,-0.7975,-0.7977,-0.7978,-0.7979,-0.8051,-0.8052,0,0,0,0,0,0,-0.7873,-0.7878,-0.792,-0.7922,-0.7893,-0.7914,-0.7917,-0.7927,-0.7945,-0.7947,-0.7933,-0.7932,-0.7961,-0.7964,-0.7968,-0.7999,-0.7977,-0.7979,-0.798,-0.805,-0.8051,-0.8052,0,0,0,0,0,0,-0.7871,-0.7876,-0.7919,-0.79,-0.7905,-0.7916,-0.7927,-0.7928,-0.7936,-0.7948,-0.795,-0.7938,-0.7961,-0.7965,-0.7988,-0.8,-0.798,-0.7982,-0.8049,-0.805,-0.8052,-0.8061,0,0,0,0,0,0,-0.787,-0.7876,-0.7885,-0.79,-0.7906,-0.7938,-0.7928,-0.7929,-0.7939,-0.7938,-0.7954,-0.7956,-0.7961,-0.7985,-0.799,-0.8002,-0.7983,-0.8048,-0.805,-0.8051,-0.806,-0.8063,-0.8065,0,0,0,0,0,-0.7868,-0.7887,-0.7886,-0.7891,-0.7918,-0.7939,-0.7942,-0.7947,-0.794,-0.795,-0.7958,-0.7956,-0.7998,-0.7988,-0.7993,-0.8006,-0.8047,-0.8049,-0.8051,-0.8059,-0.8062,-0.8065,0,0,0,0,0,0,-0.7873,-0.7889,-0.7888,-0.7912,-0.7924,-0.7938,-0.7951,-0.795,-0.7965,-0.7963,-0.7968,-0.7972,-0.7995,-0.8003,-0.7991,-0.8032,-0.8022,-0.8025,-0.8026,-0.8029,-0.8032,-0.803,-0.7985,0,0,0,0,0,-0.7877,-0.7892,-0.7905,-0.7925,-0.7931,-0.794,-0.7949,-0.7952,-0.7965,-0.797,-0.7979,-0.7992,-0.8009,-0.8019,-0.8035,-0.8061,-0.8065,-0.8072,-0.8075,-0.8077,-0.808,-0.8095,-0.8099,-0.8058,-0.8058,-0.8058,0,0,-0.7885,-0.7896,-0.7905,-0.7927,-0.7936,-0.7953,-0.7944,-0.7962,-0.7974,-0.7973,-0.7995,-0.8003,-0.8017,-0.8042,-0.8054,-0.8049,-0.8092,-0.8079,-0.8081,-0.8082,-0.8097,-0.8101,-0.8104,-0.8059,-0.8059,-0.8059,0,0,-0.7909,-0.7918,-0.7936,-0.7946,-0.7961,-0.7967,-0.7971,-0.7986,-0.7991,-0.8013,-0.8013,-0.8028,-0.8055,-0.8066,-0.8075,-0.8104,-0.8103,-0.8109,-0.8122,-0.8137,-0.814,-0.8143,-0.8154,-0.8158,-0.8111,-0.8112,-0.8112,0,-0.7918,-0.7942,-0.7946,-0.7964,-0.7974,-0.7973,-0.7992,-0.8001,-0.8021,-0.8028,-0.8022,-0.8058,-0.8067,-0.8095,-0.8102,-0.811,-0.8115,-0.8107,-0.814,-0.8143,-0.8145,-0.8156,-0.816,-0.8112,-0.8112,-0.8112,-0.8112,0,-0.7952,-0.7969,-0.7982,-0.8001,-0.8012,-0.803,-0.8038,-0.8049,-0.8051,-0.8057,-0.8081,-0.8092,-0.8111,-0.8117,-0.8119,-0.8146,-0.8143,-0.8138,-0.8129,-0.815,-0.816,-0.8164,-0.8113,-0.8113,-0.8113,-0.8113,0,0,-0.798,-0.8001,-0.8006,-0.8015,-0.8032,-0.8045,-0.8063,-0.8081,-0.8091,-0.8105,-0.8121,-0.8145,-0.8141,-0.8151,-0.8154,-0.8167,-0.819,-0.8161,-0.8162,-0.8167,-0.8222,-0.8225,-0.823,-0.8189,-0.819,-0.8191,-0.8221,0,-0.8006,-0.8039,-0.8044,-0.8073,-0.8089,-0.8089,-0.8105,-0.8117,-0.8124,-0.8139,-0.8146,-0.8164,-0.8157,-0.8163,-0.8176,-0.8185,-0.8201,-0.8183,-0.8205,-0.8206,-0.8202,-0.8235,-0.8239,-0.8266,-0.8225,-0.8225,-0.8226,0,-0.8041,-0.8056,-0.8087,-0.8102,-0.8109,-0.8123,-0.8141,-0.8155,-0.8169,-0.8173,-0.8185,-0.8186,-0.8206,-0.8195,-0.8223,-0.8211,-0.822,-0.8226,-0.8227,-0.823,-0.8218,-0.824,-0.8275,-0.828,-0.8232,-0.8231,-0.8231,0,-0.806,-0.8087,-0.8109,-0.8117,-0.8135,-0.8145,-0.8153,-0.8167,-0.8177,-0.8192,-0.82,-0.8217,-0.8226,-0.824,-0.8246,-0.8238,-0.8274,-0.8264,-0.8279,-0.8279,-0.8287,-0.8286,-0.8325,-0.8292,-0.8292,-0.8292,-0.8292,0,-0.8089,-0.8108,-0.8118,-0.8132,-0.8153,-0.8158,-0.818,-0.8188,-0.82,-0.8215,-0.8216,-0.8231,-0.8238,-0.8254,-0.8259,-0.8282,-0.8286,-0.829,-0.8292,-0.8291,-0.829,-0.8298,-0.8296,-0.8293,-0.8293,-0.8292,-0.8292,0,-0.8114,-0.8121,-0.8145,-0.816,-0.8164,-0.818,-0.8193,-0.8207,-0.8213,-0.8233,-0.8238,-0.8249,-0.8268,-0.8275,-0.8298,-0.8302,-0.8329,-0.8328,-0.8324,-0.8324,-0.8339,-0.8338,-0.8385,-0.8392,-0.8353,-0.8353,-0.8353,0,-0.8132,-0.8147,-0.8164,-0.8174,-0.8183,-0.8199,-0.821,-0.8216,-0.8228,-0.8245,-0.8257,-0.8276,-0.8291,-0.8322,-0.8332,-0.835,-0.835,-0.8365,-0.8353,-0.8352,-0.8351,-0.8351,-0.8353,-0.8368,-0.8368,-0.8368,-0.8369,0,-0.8165,-0.8168,-0.8183,-0.8201,-0.8214,-0.8228,-0.8241,-0.825,-0.8258,-0.8271,-0.829,-0.8302,-0.8326,-0.8345,-0.8364,-0.8372,-0.8372,-0.8372,-0.8377,-0.8377,-0.8374,-0.8377,-0.8331,-0.8372,-0.8371,-0.8371,-0.8371,-0.8371,-0.8188,-0.8201,-0.8215,-0.8233,-0.8244,-0.8256,-0.827,-0.8278,-0.8295,-0.8314,-0.8317,-0.8338,-0.8352,-0.8377,-0.8387,-0.8404,-0.84,-0.8406,-0.8408,-0.841,-0.8411,-0.8371,-0.8407,-0.8407,-0.8407,-0.8407,-0.8407,0,-0.8221,-0.823,-0.8246,-0.8265,-0.8279,-0.8278,-0.8293,-0.8305,-0.8323,-0.8336,-0.8352,-0.8375,-0.8393,-0.8405,-0.8423,-0.8435,-0.8435,-0.844,-0.8439,-0.8441,-0.8413,-0.8408,-0.8439,-0.8439,-0.8439,-0.8439,-0.8439,-0.8439,-0.824,-0.8263,-0.8268,-0.8296,-0.8305,-0.8326,-0.8335,-0.8347,-0.8357,-0.8383,-0.8398,-0.8405,-0.8418,-0.8438,-0.8455,-0.8458,-0.8466,-0.847,-0.8473,-0.8447,-0.8443,-0.844,-0.8435,-0.8472,-0.8472,-0.85,-0.85,-0.8501]},{"header":{"parameterUnit":"m.s-1","parameterCategory":1,"la1":30.2991,"la2":30.254,"lo1":-89.0895,"lo2":-89.0444,"dy":0.0017,"dx":0.0017,"nx":28,"ny":28,"refTime":"2024-06-01T21:00:00:Z","depth":0,"parameterNumber":3,"parameterNumberName":"V-component_of_WINDS"},"data":[0,0,0,0,0,0,0,0,0,0,0,0,0,0,0,0,0,0,0,0,0,0,0,0,0,0,0,0,0,0,0,0,0,0,0,0,0,0,0,0,0,0,0,0,0,0,0,0,0,0,0,0,0,0,0,0,0,0,3.4766,3.4766,0,3.48,3.48,3.4801,3.4737,3.4735,3.4733,3.4731,3.4765,3.4768,3.477,0,0,0,0,0,0,0,0,0,0,0,0,0,3.4642,3.4644,3.4766,3.4766,3.4766,3.48,3.48,3.4801,3.4738,3.4735,3.4733,3.473,3.4764,3.4767,3.4771,0,0,0,0,0,0,0,0,0,0,0,0,0,3.4688,3.4645,3.4766,3.4739,3.4737,3.48,3.48,3.4801,3.4738,3.4735,3.4732,3.4729,3.4763,3.4767,3.4771,3.4861,0,0,3.4784,3.4786,0,0,0,0,0,0,0,0,3.4685,3.4692,3.4743,3.4741,3.4739,3.4761,3.4769,3.4821,3.4739,3.4738,3.4731,3.4728,3.4766,3.477,3.4783,3.4862,3.4864,3.4785,3.4787,3.4789,3.479,0,0,0,0,0,0,0,3.4682,3.4691,3.4779,3.4743,3.4741,3.4724,3.4727,3.4779,3.4769,3.4738,3.4733,3.4738,3.4764,3.4779,3.4784,3.4864,3.4785,3.4788,3.4791,3.4793,3.5015,3.5019,0,0,0,0,0,0,3.4683,3.4688,3.4778,3.478,3.4704,3.4729,3.4733,3.4757,3.4769,3.4767,3.4741,3.4735,3.4774,3.4779,3.4785,3.4888,3.4789,3.4793,3.4796,3.5012,3.5016,3.502,0,0,0,0,0,0,3.468,3.4691,3.4777,3.4733,3.4743,3.4735,3.4763,3.476,3.4774,3.4771,3.4769,3.4758,3.4771,3.4778,3.4842,3.4888,3.4795,3.4799,3.5008,3.5013,3.5018,3.5097,0,0,0,0,0,0,3.4677,3.4691,3.4726,3.4734,3.4745,3.4835,3.4766,3.4763,3.4782,3.4775,3.4786,3.4785,3.4769,3.4836,3.4846,3.4892,3.4802,3.5004,3.5011,3.5016,3.509,3.5104,3.5116,0,0,0,0,0,3.4673,3.4747,3.4728,3.4739,3.4789,3.4837,3.4843,3.4824,3.4786,3.482,3.4818,3.4785,3.4882,3.4843,3.4854,3.4902,3.5001,3.5009,3.5016,3.5084,3.5101,3.5115,0,0,0,0,0,0,3.4744,3.4748,3.4727,3.4806,3.4822,3.4827,3.4869,3.4843,3.487,3.4862,3.4836,3.484,3.4907,3.4911,3.4868,3.4988,3.4935,3.4945,3.4983,3.4999,3.5012,3.5008,3.4806,0,0,0,0,0,3.4769,3.4809,3.481,3.488,3.4889,3.4878,3.4898,3.4882,3.4897,3.4903,3.4905,3.4921,3.4954,3.4977,3.5008,3.5091,3.5091,3.5129,3.5142,3.5153,3.5161,3.5202,3.5218,3.5045,3.5044,3.5044,0,0,3.4821,3.4828,3.4855,3.4894,3.4904,3.4945,3.4884,3.493,3.4959,3.491,3.4969,3.4972,3.4987,3.5059,3.5091,3.5065,3.5209,3.5162,3.5171,3.5173,3.5212,3.5228,3.5243,3.505,3.5049,3.5048,0,0,3.4936,3.4946,3.5004,3.5016,3.5032,3.5024,3.5038,3.5046,3.5045,3.5105,3.5068,3.5102,3.5161,3.5173,3.5186,3.5303,3.5273,3.5314,3.5381,3.5422,3.5435,3.5447,3.5486,3.5501,3.5323,3.5323,3.5324,0,3.4998,3.5059,3.5037,3.5085,3.5102,3.506,3.5117,3.5129,3.5154,3.5167,3.5137,3.5208,3.5216,3.5289,3.5317,3.5331,3.5344,3.5312,3.5435,3.5447,3.5458,3.5495,3.551,3.5328,3.5328,3.5327,3.5327,0,3.5133,3.5175,3.522,3.5245,3.5267,3.532,3.5305,3.533,3.5311,3.5306,3.5365,3.5373,3.5403,3.542,3.5402,3.549,3.5472,3.544,3.5385,3.5479,3.5514,3.5528,3.5335,3.5333,3.5332,3.5331,0,0,3.5294,3.5305,3.5322,3.5331,3.5345,3.5377,3.5427,3.5456,3.5477,3.5496,3.5535,3.5586,3.5554,3.557,3.5553,3.5589,3.5678,3.5551,3.5551,3.5572,3.5772,3.5795,3.5812,3.5658,3.5661,3.5663,3.577,0,3.5406,3.5491,3.5473,3.5556,3.5593,3.5553,3.5595,3.5608,3.5604,3.5634,3.5629,3.5664,3.5622,3.563,3.5664,3.566,3.5717,3.5652,3.5693,3.5695,3.5689,3.5831,3.5856,3.5956,3.5783,3.5786,3.5787,0,3.5548,3.5571,3.5659,3.5664,3.5679,3.5718,3.5742,3.5772,3.5784,3.5779,3.5795,3.5771,3.5818,3.5765,3.5828,3.5784,3.58,3.5801,3.5804,3.5805,3.5746,3.5834,3.5988,3.6002,3.5809,3.5807,3.5805,0,3.5654,3.5707,3.5765,3.5775,3.5784,3.5811,3.5816,3.5825,3.5844,3.5865,3.5876,3.5903,3.5917,3.5938,3.592,3.5884,3.5986,3.5932,3.5981,3.5981,3.6003,3.6002,3.616,3.6017,3.6017,3.6016,3.6016,0,3.578,3.5834,3.5812,3.5848,3.5907,3.5884,3.5943,3.5942,3.5951,3.5985,3.5952,3.5984,3.596,3.599,3.5977,3.603,3.6038,3.6033,3.6029,3.6035,3.6035,3.6044,3.6036,3.602,3.6019,3.6019,3.6018,0,3.5907,3.5895,3.5955,3.5958,3.596,3.6003,3.6004,3.6037,3.603,3.6073,3.6082,3.6071,3.6104,3.6089,3.6125,3.6116,3.6183,3.6171,3.6179,3.6175,3.6225,3.6219,3.6392,3.6412,3.6258,3.626,3.6261,0,3.5988,3.6028,3.6034,3.6055,3.6061,3.6095,3.6113,3.6091,3.6111,3.6127,3.6157,3.6188,3.621,3.6265,3.626,3.6286,3.6273,3.6331,3.6276,3.6281,3.6271,3.6268,3.6271,3.6342,3.6344,3.6345,3.6346,0,3.613,3.6122,3.6149,3.6174,3.6196,3.6215,3.6231,3.6249,3.6228,3.6252,3.6285,3.6303,3.6338,3.6368,3.6391,3.6394,3.6366,3.6364,3.6376,3.6382,3.6384,3.6381,3.6207,3.6359,3.6358,3.6357,3.6356,3.6356,3.6235,3.6268,3.6277,3.6308,3.6317,3.6332,3.6362,3.6358,3.6386,3.6412,3.6398,3.6436,3.6446,3.6473,3.648,3.6509,3.6486,3.6504,3.6509,3.6513,3.6519,3.6381,3.6513,3.6513,3.6513,3.6512,3.6512,0,3.6374,3.6378,3.6406,3.6428,3.6452,3.6424,3.644,3.6461,3.6495,3.6506,3.6529,3.6566,3.6594,3.6591,3.6616,3.664,3.6628,3.6647,3.6644,3.6645,3.6539,3.6525,3.6657,3.6657,3.6657,3.6656,3.6656,3.6656,3.6449,3.6503,3.6495,3.6552,3.6555,3.6592,3.6603,3.6615,3.6624,3.6667,3.669,3.6687,3.6692,3.6717,3.6741,3.6739,3.6749,3.6773,3.6767,3.6667,3.6653,3.6639,3.6625,3.6776,3.6776,3.687,3.6871,3.6871]}]]